Location: Dillon
(41.1766°N, 107.0923°W)
Time: 08:53:07
(UTC+00:00)

GAOFEN 12 - Visible Passes

Search period start: 26 November 2022 00:00
Search period end: 06 December 2022 00:00
Orbit: 627 x 629 km, 97.9° (Epoch: 26 November)

Date Brightness Start Highest point End Pass type
(mag) Time Alt. Az. Time Alt. Az. Time Alt. Az.
26 Nov ? 00:42:30 10° SE 00:46:20 31° ENE 00:50:11 10° N visible
26 Nov ? 02:19:06 10° SSW 02:22:37 23° W 02:26:08 10° NW visible
27 Nov ? 01:01:49 10° SSE 01:06:02 50° ENE 01:10:16 10° N visible
27 Nov ? 02:40:10 10° SW 02:42:34 14° W 02:45:00 10° WNW visible
28 Nov ? 01:21:24 10° SSE 01:25:46 83° ENE 01:30:09 10° N visible
28 Nov ? 13:11:05 10° NE 13:13:42 16° E 13:16:20 10° SE visible
29 Nov ? 00:07:38 10° E 00:09:47 14° ENE 00:11:56 10° NNE visible
29 Nov ? 01:41:15 10° S 01:45:33 59° W 01:49:54 10° NNW visible
29 Nov ? 13:30:02 10° NE 13:33:40 25° E 13:37:16 10° SSE visible
30 Nov ? 00:26:05 10° ESE 00:29:22 21° ENE 00:32:39 10° NNE visible
30 Nov ? 02:01:24 10° SSW 02:05:24 35° W 02:09:26 10° NNW visible
01 Dec ? 00:45:06 10° SE 00:49:00 33° ENE 00:52:54 10° N visible
01 Dec ? 02:21:55 10° SW 02:25:19 22° W 02:28:43 10° NW visible
02 Dec ? 01:04:27 10° SSE 01:08:41 53° ENE 01:12:57 10° N visible
02 Dec ? 02:43:06 10° WSW 02:45:17 13° W 02:47:27 10° WNW visible
03 Dec ? 01:24:04 10° SSE 01:28:26 89° ENE 01:32:50 10° NNW visible
03 Dec ? 13:13:35 10° NE 13:16:25 17° E 13:19:13 10° SE visible
04 Dec ? 00:10:03 10° E 00:12:25 15° ENE 00:14:48 10° NNE visible
04 Dec ? 01:43:58 10° S 01:48:14 55° W 01:52:32 10° NNW visible
04 Dec ? 13:32:37 10° NE 13:36:21 27° E 13:40:03 10° SSE visible
05 Dec ? 00:28:37 10° ESE 00:32:00 22° ENE 00:35:24 10° NNE visible
05 Dec ? 02:04:09 10° SSW 02:08:06 33° W 02:12:03 10° NNW visible
